Time,TemperatureF,DewpointF,PressureIn,WindDirection,WindDirectionDegrees,WindSpeedMPH,WindSpeedGustMPH,Humidity,HourlyPrecipIn,Conditions,Clouds,dailyrainin,SoftwareType,DateUTC
2015-09-03 00:04:00,76.5,74.3,29.90,SE,133,0.0,2.0,93,0.00,,,0.00,meteohub,2015-09-03 05:04:00,
2015-09-03 00:09:00,76.3,74.1,29.90,ESE,105,1.0,2.0,93,0.00,,,0.00,meteohub,2015-09-03 05:09:00,
2015-09-03 00:14:00,76.5,74.3,29.90,ESE,108,0.0,2.0,93,0.00,,,0.00,meteohub,2015-09-03 05:14:00,
2015-09-03 00:19:00,76.5,73.9,29.90,ESE,117,0.0,2.0,92,0.00,,,0.00,meteohub,2015-09-03 05:19:00,
2015-09-03 00:24:00,76.3,74.1,29.90,ESE,102,1.0,2.0,93,0.00,,,0.00,meteohub,2015-09-03 05:24:00,
2015-09-03 00:29:00,76.3,74.1,29.91,East,86,0.0,2.0,93,0.00,,,0.00,meteohub,2015-09-03 05:29:00,
2015-09-03 00:34:00,76.3,74.1,29.90,East,98,0.0,3.0,93,0.00,,,0.00,meteohub,2015-09-03 05:34:00,
2015-09-03 00:39:00,76.1,73.9,29.90,ENE,68,1.0,3.0,93,0.00,,,0.00,meteohub,2015-09-03 05:39:00,
2015-09-03 00:44:00,76.1,73.9,29.90,SE,129,1.0,3.0,93,0.00,,,0.00,meteohub,2015-09-03 05:44:00,
2015-09-03 00:49:00,75.9,73.8,29.90,SE,125,0.0,3.0,93,0.00,,,0.00,meteohub,2015-09-03 05:49:00,
2015-09-03 00:54:00,75.9,74.1,29.90,SE,125,0.0,2.0,94,0.00,,,0.00,meteohub,2015-09-03 05:54:00,
2015-09-03 00:59:00,75.9,74.1,29.90,SE,126,0.0,2.0,94,0.00,,,0.00,meteohub,2015-09-03 05:59:00,
2015-09-03 01:04:00,75.9,74.1,29.90,ESE,115,0.0,2.0,94,0.00,,,0.00,meteohub,2015-09-03 06:04:00,
2015-09-03 01:09:00,75.9,74.1,29.90,ESE,116,0.0,1.0,94,0.00,,,0.00,meteohub,2015-09-03 06:09:00,
2015-09-03 01:14:00,76.3,74.5,29.90,ESE,117,0.0,1.0,94,0.00,,,0.00,meteohub,2015-09-03 06:14:00,
2015-09-03 01:19:00,76.3,74.1,29.90,SE,124,0.0,1.0,93,0.00,,,0.00,meteohub,2015-09-03 06:19:00,
2015-09-03 01:24:00,76.3,74.1,29.90,ESE,122,0.0,1.0,93,0.00,,,0.00,meteohub,2015-09-03 06:24:00,
2015-09-03 01:29:00,76.3,74.5,29.90,ESE,122,0.0,1.0,94,0.00,,,0.00,meteohub,2015-09-03 06:29:00,
2015-09-03 01:34:00,76.3,74.1,29.90,ESE,122,0.0,1.0,93,0.00,,,0.00,meteohub,2015-09-03 06:34:00,
2015-09-03 01:39:00,76.1,73.9,29.90,ESE,122,0.0,1.0,93,0.00,,,0.00,meteohub,2015-09-03 06:39:00,
2015-09-03 01:44:00,76.3,74.1,29.90,East,101,1.0,1.0,93,0.00,,,0.00,meteohub,2015-09-03 06:44:00,
2015-09-03 01:49:00,76.3,74.1,29.90,East,79,0.0,1.0,93,0.00,,,0.00,meteohub,2015-09-03 06:49:00,
2015-09-03 01:54:00,76.1,74.3,29.90,ENE,75,1.0,2.0,94,0.00,,,0.00,meteohub,2015-09-03 06:54:00,
2015-09-03 01:59:00,75.9,74.1,29.90,ENE,73,0.0,2.0,94,0.00,,,0.00,meteohub,2015-09-03 06:59:00,
2015-09-03 02:04:00,75.9,74.1,29.89,ENE,74,1.0,2.0,94,0.00,,,0.00,meteohub,2015-09-03 07:04:00,
2015-09-03 02:09:00,75.9,74.1,29.89,ENE,71,2.0,2.0,94,0.00,,,0.00,meteohub,2015-09-03 07:09:00,
2015-09-03 02:14:00,75.9,74.1,29.89,ESE,118,0.0,2.0,94,0.00,,,0.00,meteohub,2015-09-03 07:14:00,
2015-09-03 02:19:00,75.9,73.8,29.89,East,100,0.0,3.0,93,0.00,,,0.00,meteohub,2015-09-03 07:19:00,
2015-09-03 02:24:00,75.7,73.9,29.89,East,98,0.0,3.0,94,0.00,,,0.00,meteohub,2015-09-03 07:24:00,
2015-09-03 02:29:00,75.7,73.9,29.89,East,81,1.0,3.0,94,0.00,,,0.00,meteohub,2015-09-03 07:29:00,
2015-09-03 02:39:00,75.6,73.8,29.89,ESE,102,0.0,2.0,94,0.00,,,0.00,meteohub,2015-09-03 07:39:00,
2015-09-03 02:44:00,75.4,73.6,29.89,ESE,123,1.0,2.0,94,0.00,,,0.00,meteohub,2015-09-03 07:44:00,
2015-09-03 02:49:00,75.4,73.6,29.88,ESE,123,0.0,2.0,94,0.00,,,0.00,meteohub,2015-09-03 07:49:00,
2015-09-03 02:54:00,75.0,73.4,29.88,ESE,122,0.0,2.0,95,0.00,,,0.00,meteohub,2015-09-03 07:54:00,
2015-09-03 02:59:00,75.2,73.6,29.88,SE,143,0.0,2.0,95,0.00,,,0.00,meteohub,2015-09-03 07:59:00,
2015-09-03 03:04:00,75.2,73.6,29.89,East,98,0.0,2.0,95,0.00,,,0.00,meteohub,2015-09-03 08:04:00,
2015-09-03 03:09:00,75.0,73.4,29.89,ESE,108,0.0,2.0,95,0.00,,,0.00,meteohub,2015-09-03 08:09:00,
2015-09-03 03:14:00,75.0,73.4,29.88,SE,128,0.0,2.0,95,0.00,,,0.00,meteohub,2015-09-03 08:14:00,
2015-09-03 03:19:00,75.0,73.4,29.88,ESE,114,0.0,2.0,95,0.00,,,0.00,meteohub,2015-09-03 08:19:00,
2015-09-03 03:24:00,74.8,73.2,29.88,ESE,116,0.0,2.0,95,0.00,,,0.00,meteohub,2015-09-03 08:24:00,
2015-09-03 03:29:00,75.0,73.4,29.88,ESE,105,0.0,3.0,95,0.00,,,0.00,meteohub,2015-09-03 08:29:00,
2015-09-03 03:34:00,74.8,73.2,29.88,SE,124,0.0,3.0,95,0.00,,,0.00,meteohub,2015-09-03 08:34:00,
2015-09-03 03:39:00,74.8,73.2,29.88,ESE,115,0.0,3.0,95,0.00,,,0.00,meteohub,2015-09-03 08:39:00,
2015-09-03 03:44:00,74.8,73.2,29.89,ESE,113,0.0,2.0,95,0.00,,,0.00,meteohub,2015-09-03 08:44:00,
2015-09-03 03:49:00,74.7,73.2,29.89,ESE,115,0.0,2.0,95,0.00,,,0.00,meteohub,2015-09-03 08:49:00,
2015-09-03 03:55:00,74.7,73.4,29.89,SE,127,0.0,2.0,96,0.00,,,0.00,meteohub,2015-09-03 08:55:00,
2015-09-03 04:00:00,74.8,73.6,29.89,East,90,0.0,2.0,96,0.00,,,0.00,meteohub,2015-09-03 09:00:00,
2015-09-03 04:05:00,74.8,73.2,29.89,East,96,0.0,2.0,95,0.00,,,0.00,meteohub,2015-09-03 09:05:00,
2015-09-03 04:10:00,74.8,73.2,29.89,ESE,123,0.0,2.0,95,0.00,,,0.00,meteohub,2015-09-03 09:10:00,
2015-09-03 04:15:00,74.8,73.6,29.89,ESE,111,0.0,1.0,96,0.00,,,0.00,meteohub,2015-09-03 09:15:00,
2015-09-03 04:20:00,74.8,73.2,29.89,ESE,120,0.0,1.0,95,0.00,,,0.00,meteohub,2015-09-03 09:20:00,
2015-09-03 04:25:00,74.7,73.2,29.89,East,98,0.0,1.0,95,0.00,,,0.00,meteohub,2015-09-03 09:25:00,
2015-09-03 04:30:00,74.7,73.4,29.89,ESE,119,0.0,1.0,96,0.00,,,0.00,meteohub,2015-09-03 09:30:00,
2015-09-03 04:35:00,74.7,73.2,29.89,East,89,1.0,1.0,95,0.00,,,0.00,meteohub,2015-09-03 09:35:00,
2015-09-03 04:40:00,74.5,73.0,29.89,ESE,105,0.0,2.0,95,0.00,,,0.00,meteohub,2015-09-03 09:40:00,
2015-09-03 04:45:00,74.5,73.2,29.89,East,98,0.0,2.0,96,0.00,,,0.00,meteohub,2015-09-03 09:45:00,
2015-09-03 04:50:00,74.5,73.2,29.89,East,98,0.0,2.0,96,0.00,,,0.00,meteohub,2015-09-03 09:50:00,
2015-09-03 04:55:00,74.3,73.0,29.89,ESE,110,0.0,2.0,96,0.00,,,0.00,meteohub,2015-09-03 09:55:00,
2015-09-03 05:00:00,74.5,73.2,29.89,ESE,107,0.0,1.0,96,0.00,,,0.00,meteohub,2015-09-03 10:00:00,
2015-09-03 05:05:00,74.3,73.0,29.89,ESE,114,0.0,2.0,96,0.00,,,0.00,meteohub,2015-09-03 10:05:00,
2015-09-03 05:10:00,74.1,72.9,29.89,East,89,0.0,2.0,96,0.00,,,0.00,meteohub,2015-09-03 10:10:00,
2015-09-03 05:15:00,74.3,73.0,29.89,ESE,122,0.0,2.0,96,0.00,,,0.00,meteohub,2015-09-03 10:15:00,
2015-09-03 05:20:00,74.1,72.9,29.89,ENE,75,1.0,2.0,96,0.00,,,0.00,meteohub,2015-09-03 10:20:00,
2015-09-03 05:25:00,74.1,72.9,29.89,ESE,115,0.0,2.0,96,0.00,,,0.00,meteohub,2015-09-03 10:25:00,
2015-09-03 05:30:00,74.1,72.9,29.89,ENE,71,0.0,1.0,96,0.00,,,0.00,meteohub,2015-09-03 10:30:00,
2015-09-03 05:35:00,74.1,72.9,29.89,ESE,119,0.0,2.0,96,0.00,,,0.00,meteohub,2015-09-03 10:35:00,
2015-09-03 05:40:00,74.1,72.9,29.89,ESE,117,0.0,2.0,96,0.00,,,0.00,meteohub,2015-09-03 10:40:00,
2015-09-03 05:45:00,74.5,73.2,29.89,ESE,114,0.0,1.0,96,0.00,,,0.00,meteohub,2015-09-03 10:45:00,
2015-09-03 05:50:00,74.1,72.9,29.89,ENE,77,1.0,1.0,96,0.00,,,0.00,meteohub,2015-09-03 10:50:00,
2015-09-03 05:55:00,74.1,72.9,29.89,ESE,106,0.0,2.0,96,0.00,,,0.00,meteohub,2015-09-03 10:55:00,
2015-09-03 06:00:00,74.3,73.0,29.89,ESE,108,1.0,2.0,96,0.00,,,0.00,meteohub,2015-09-03 11:00:00,
2015-09-03 06:05:00,74.3,73.0,29.89,East,88,0.0,2.0,96,0.00,,,0.00,meteohub,2015-09-03 11:05:00,
2015-09-03 06:10:00,74.3,73.0,29.89,ENE,67,0.0,2.0,96,0.00,,,0.00,meteohub,2015-09-03 11:10:00,
2015-09-03 06:15:00,74.3,73.0,29.89,ENE,65,1.0,2.0,96,0.00,,,0.00,meteohub,2015-09-03 11:15:00,
2015-09-03 06:20:00,74.3,73.0,29.89,ENE,72,1.0,2.0,96,0.00,,,0.00,meteohub,2015-09-03 11:20:00,
2015-09-03 06:25:00,74.3,73.0,29.89,ENE,74,0.0,3.0,96,0.00,,,0.00,meteohub,2015-09-03 11:25:00,
2015-09-03 06:30:00,74.3,73.0,29.89,East,79,0.0,3.0,96,0.00,,,0.00,meteohub,2015-09-03 11:30:00,
2015-09-03 06:35:00,74.1,72.9,29.89,NE,55,2.0,3.0,96,0.00,,,0.00,meteohub,2015-09-03 11:35:00,
2015-09-03 06:40:00,74.1,72.9,29.89,East,101,1.0,2.0,96,0.00,,,0.00,meteohub,2015-09-03 11:40:00,
2015-09-03 06:45:00,74.5,73.6,29.89,ESE,118,2.0,2.0,97,0.00,,,0.00,meteohub,2015-09-03 11:45:00,
2015-09-03 06:50:00,74.1,72.9,29.89,East,86,1.0,4.0,96,0.00,,,0.00,meteohub,2015-09-03 11:50:00,
2015-09-03 06:55:00,74.1,72.9,29.89,ESE,116,0.0,4.0,96,0.00,,,0.00,meteohub,2015-09-03 11:55:00,
2015-09-03 07:01:00,74.1,73.2,29.89,ESE,114,1.0,4.0,97,0.00,,,0.00,meteohub,2015-09-03 12:01:00,
2015-09-03 07:06:00,74.1,72.9,29.89,ENE,74,1.0,3.0,96,0.00,,,0.00,meteohub,2015-09-03 12:06:00,
2015-09-03 07:11:00,74.1,72.9,29.89,ESE,120,0.0,3.0,96,0.00,,,0.00,meteohub,2015-09-03 12:11:00,
2015-09-03 07:16:00,74.1,73.2,29.90,ESE,121,1.0,3.0,97,0.00,,,0.00,meteohub,2015-09-03 12:16:00,
2015-09-03 07:21:00,73.9,73.0,29.90,SE,139,1.0,2.0,97,0.00,,,0.00,meteohub,2015-09-03 12:21:00,
2015-09-03 07:26:00,73.9,73.0,29.90,SE,129,0.0,2.0,97,0.00,,,0.00,meteohub,2015-09-03 12:26:00,
2015-09-03 07:31:00,74.1,73.2,29.90,SSE,148,0.0,3.0,97,0.00,,,0.00,meteohub,2015-09-03 12:31:00,
2015-09-03 07:36:00,74.1,73.2,29.90,South,181,0.0,3.0,97,0.00,,,0.00,meteohub,2015-09-03 12:36:00,
2015-09-03 07:41:00,74.5,73.6,29.90,East,101,1.0,3.0,97,0.00,,,0.00,meteohub,2015-09-03 12:41:00,
2015-09-03 07:46:00,74.5,73.6,29.91,ESE,108,3.0,3.0,97,0.00,,,0.00,meteohub,2015-09-03 12:46:00,
2015-09-03 07:51:00,74.7,73.8,29.91,SE,128,2.0,3.0,97,0.00,,,0.00,meteohub,2015-09-03 12:51:00,
2015-09-03 07:56:00,74.8,73.9,29.91,ESE,110,0.0,3.0,97,0.00,,,0.00,meteohub,2015-09-03 12:56:00,
2015-09-03 08:01:00,75.0,74.1,29.91,ENE,77,1.0,3.0,97,0.00,,,0.00,meteohub,2015-09-03 13:01:00,
2015-09-03 08:06:00,75.0,73.8,29.91,East,94,0.0,3.0,96,0.00,,,0.00,meteohub,2015-09-03 13:06:00,
2015-09-03 08:11:00,75.4,74.1,29.91,ENE,75,1.0,2.0,96,0.00,,,0.00,meteohub,2015-09-03 13:11:00,
2015-09-03 08:16:00,75.9,74.7,29.91,East,82,1.0,2.0,96,0.00,,,0.00,meteohub,2015-09-03 13:16:00,
2015-09-03 08:21:00,76.5,74.8,29.91,ESE,113,1.0,2.0,95,0.00,,,0.00,meteohub,2015-09-03 13:21:00,
2015-09-03 08:26:00,76.6,74.8,29.92,East,87,1.0,3.0,94,0.00,,,0.00,meteohub,2015-09-03 13:26:00,
2015-09-03 08:31:00,77.0,75.2,29.91,ENE,72,1.0,3.0,94,0.00,,,0.00,meteohub,2015-09-03 13:31:00,
2015-09-03 08:36:00,77.4,75.2,29.91,ENE,67,1.0,3.0,93,0.00,,,0.00,meteohub,2015-09-03 13:36:00,
2015-09-03 08:41:00,77.5,75.0,29.91,ESE,112,3.0,3.0,92,0.00,,,0.00,meteohub,2015-09-03 13:41:00,
2015-09-03 08:46:00,78.3,75.4,29.91,ENE,76,2.0,3.0,91,0.00,,,0.00,meteohub,2015-09-03 13:46:00,
2015-09-03 08:51:00,78.4,74.8,29.91,East,81,0.0,3.0,89,0.00,,,0.00,meteohub,2015-09-03 13:51:00,
2015-09-03 08:56:00,79.0,75.2,29.91,East,95,1.0,3.0,88,0.00,,,0.00,meteohub,2015-09-03 13:56:00,
2015-09-03 09:01:00,79.5,75.4,29.91,ESE,111,0.0,4.0,87,0.00,,,0.00,meteohub,2015-09-03 14:01:00,
2015-09-03 09:06:00,80.2,75.4,29.92,East,95,0.0,4.0,85,0.00,,,0.00,meteohub,2015-09-03 14:06:00,
2015-09-03 09:11:00,80.6,75.7,29.92,ESE,102,0.0,4.0,85,0.00,,,0.00,meteohub,2015-09-03 14:11:00,
2015-09-03 09:16:00,81.1,75.6,29.92,ESE,106,1.0,3.0,83,0.00,,,0.00,meteohub,2015-09-03 14:16:00,
2015-09-03 09:21:00,81.7,75.6,29.91,East,79,1.0,3.0,82,0.00,,,0.00,meteohub,2015-09-03 14:21:00,
2015-09-03 09:26:00,82.2,75.7,29.92,ESE,118,2.0,3.0,81,0.00,,,0.00,meteohub,2015-09-03 14:26:00,
2015-09-03 09:31:00,82.9,76.1,29.91,SE,143,2.0,3.0,80,0.00,,,0.00,meteohub,2015-09-03 14:31:00,
2015-09-03 09:36:00,82.8,75.6,29.91,ENE,68,2.0,4.0,79,0.00,,,0.00,meteohub,2015-09-03 14:36:00,
2015-09-03 09:41:00,83.1,75.9,29.91,ESE,106,2.0,4.0,79,0.00,,,0.00,meteohub,2015-09-03 14:41:00,
2015-09-03 09:46:00,83.5,76.3,29.91,ESE,122,0.0,4.0,79,0.00,,,0.00,meteohub,2015-09-03 14:46:00,
2015-09-03 09:51:00,83.8,76.3,29.91,East,98,3.0,4.0,78,0.00,,,0.00,meteohub,2015-09-03 14:51:00,
2015-09-03 09:56:00,83.3,76.1,29.91,SE,138,2.0,4.0,79,0.00,,,0.00,meteohub,2015-09-03 14:56:00,
2015-09-03 10:01:00,83.7,76.5,29.91,ESE,113,2.0,4.0,79,0.00,,,0.00,meteohub,2015-09-03 15:01:00,
2015-09-03 10:06:00,84.0,76.5,29.91,ESE,114,3.0,5.0,78,0.00,,,0.00,meteohub,2015-09-03 15:06:00,
2015-09-03 10:11:00,84.6,77.0,29.91,SE,124,2.0,7.0,78,0.00,,,0.00,meteohub,2015-09-03 15:11:00,
2015-09-03 10:16:00,85.1,77.0,29.92,ENE,68,1.0,7.0,77,0.00,,,0.00,meteohub,2015-09-03 15:16:00,
2015-09-03 10:21:00,84.9,76.8,29.92,East,97,2.0,7.0,77,0.00,,,0.00,meteohub,2015-09-03 15:21:00,
2015-09-03 10:26:00,85.3,76.8,29.92,ESE,120,2.0,6.0,76,0.00,,,0.00,meteohub,2015-09-03 15:26:00,
2015-09-03 10:31:00,86.0,77.5,29.92,ENE,61,4.0,6.0,76,0.00,,,0.00,meteohub,2015-09-03 15:31:00,
2015-09-03 10:36:00,86.2,77.0,29.92,SE,141,4.0,5.0,74,0.00,,,0.00,meteohub,2015-09-03 15:36:00,
2015-09-03 10:41:00,85.6,76.5,29.92,ENE,68,2.0,5.0,74,0.00,,,0.00,meteohub,2015-09-03 15:41:00,
2015-09-03 10:46:00,85.8,76.6,29.92,ESE,109,1.0,5.0,74,0.00,,,0.00,meteohub,2015-09-03 15:46:00,
2015-09-03 10:51:00,86.2,76.5,29.93,SE,125,3.0,5.0,73,0.00,,,0.00,meteohub,2015-09-03 15:51:00,
2015-09-03 10:56:00,87.1,77.4,29.93,ESE,122,4.0,5.0,73,0.00,,,0.00,meteohub,2015-09-03 15:56:00,
2015-09-03 11:01:00,86.7,77.0,29.93,East,88,2.0,5.0,73,0.00,,,0.00,meteohub,2015-09-03 16:01:00,
2015-09-03 11:07:00,86.2,77.0,29.93,NNE,25,5.0,7.0,74,0.00,,,0.00,meteohub,2015-09-03 16:07:00,
2015-09-03 11:12:00,85.6,76.8,29.92,ENE,61,2.0,7.0,75,0.00,,,0.00,meteohub,2015-09-03 16:12:00,
2015-09-03 11:17:00,85.5,77.0,29.92,SE,134,2.0,7.0,76,0.00,,,0.00,meteohub,2015-09-03 16:17:00,
2015-09-03 11:22:00,85.1,77.5,29.92,East,90,0.0,6.0,78,0.00,,,0.00,meteohub,2015-09-03 16:22:00,
2015-09-03 11:27:00,84.4,77.5,29.92,ENE,66,3.0,5.0,80,0.00,,,0.00,meteohub,2015-09-03 16:27:00,
2015-09-03 11:32:00,83.5,77.7,29.92,ENE,64,3.0,6.0,83,0.00,,,0.00,meteohub,2015-09-03 16:32:00,
2015-09-03 11:37:00,82.9,77.5,29.92,ENE,73,3.0,6.0,84,0.00,,,0.00,meteohub,2015-09-03 16:37:00,
2015-09-03 11:42:00,82.8,77.4,29.92,NE,49,3.0,6.0,84,0.00,,,0.00,meteohub,2015-09-03 16:42:00,
2015-09-03 11:47:00,82.8,77.7,29.91,ENE,60,5.0,6.0,85,0.00,,,0.00,meteohub,2015-09-03 16:47:00,
2015-09-03 11:52:00,83.3,75.7,29.92,East,81,3.0,6.0,78,0.00,,,0.00,meteohub,2015-09-03 16:52:00,
2015-09-03 11:57:00,83.8,75.9,29.91,ESE,122,4.0,6.0,77,0.00,,,0.00,meteohub,2015-09-03 16:57:00,
2015-09-03 12:02:00,84.4,75.9,29.91,ENE,68,2.0,6.0,76,0.00,,,0.00,meteohub,2015-09-03 17:02:00,
2015-09-03 12:07:00,84.4,75.6,29.91,NE,54,2.0,5.0,75,0.00,,,0.00,meteohub,2015-09-03 17:07:00,
2015-09-03 12:12:00,84.4,75.6,29.91,ESE,106,1.0,5.0,75,0.00,,,0.00,meteohub,2015-09-03 17:12:00,
2015-09-03 12:17:00,84.6,75.7,29.91,SE,139,1.0,5.0,75,0.00,,,0.00,meteohub,2015-09-03 17:17:00,
2015-09-03 12:22:00,84.6,75.7,29.91,SE,124,0.0,5.0,75,0.00,,,0.00,meteohub,2015-09-03 17:22:00,
2015-09-03 12:27:00,84.6,75.7,29.91,SSW,208,1.0,4.0,75,0.00,,,0.00,meteohub,2015-09-03 17:27:00,
2015-09-03 12:32:00,83.1,76.3,29.91,South,174,1.0,6.0,80,0.00,,,0.00,meteohub,2015-09-03 17:32:00,
2015-09-03 12:37:00,81.1,76.3,29.91,WSW,257,4.0,8.0,85,0.00,,,0.00,meteohub,2015-09-03 17:37:00,
2015-09-03 12:42:00,79.5,75.9,29.91,NW,304,5.0,11.0,89,0.02,,,0.02,meteohub,2015-09-03 17:42:00,
2015-09-03 12:47:00,78.4,75.2,29.91,NW,318,9.0,12.0,90,0.05,,,0.05,meteohub,2015-09-03 17:47:00,
2015-09-03 12:52:00,77.4,74.1,29.91,NNW,327,7.0,12.0,90,0.10,,,0.10,meteohub,2015-09-03 17:52:00,
2015-09-03 12:57:00,76.3,73.4,29.91,NNW,342,4.0,12.0,91,0.26,,,0.26,meteohub,2015-09-03 17:57:00,
2015-09-03 13:02:00,75.9,73.8,29.90,NW,318,4.0,12.0,93,0.29,,,0.29,meteohub,2015-09-03 18:02:00,
2015-09-03 13:07:00,76.1,73.9,29.90,North,11,4.0,12.0,93,0.29,,,0.29,meteohub,2015-09-03 18:07:00,
2015-09-03 13:12:00,76.5,74.3,29.90,NE,49,2.0,8.0,93,0.29,,,0.29,meteohub,2015-09-03 18:12:00,
2015-09-03 13:17:00,77.2,75.4,29.89,NE,36,1.0,6.0,94,0.29,,,0.29,meteohub,2015-09-03 18:17:00,
2015-09-03 13:22:00,77.7,75.9,29.89,NW,304,0.0,5.0,94,0.29,,,0.29,meteohub,2015-09-03 18:22:00,
2015-09-03 13:27:00,78.3,76.1,29.89,North,6,1.0,4.0,93,0.29,,,0.29,meteohub,2015-09-03 18:27:00,
2015-09-03 13:32:00,79.2,77.0,29.89,North,8,0.0,3.0,93,0.29,,,0.29,meteohub,2015-09-03 18:32:00,
2015-09-03 13:37:00,80.2,77.7,29.88,NW,321,0.0,2.0,92,0.28,,,0.29,meteohub,2015-09-03 18:37:00,
2015-09-03 13:42:00,81.7,78.8,29.88,NW,304,0.0,2.0,91,0.27,,,0.29,meteohub,2015-09-03 18:42:00,
2015-09-03 13:47:00,83.5,78.4,29.88,South,176,0.0,2.0,85,0.23,,,0.29,meteohub,2015-09-03 18:47:00,
2015-09-03 13:52:00,84.9,78.8,29.88,SE,142,1.0,3.0,82,0.11,,,0.29,meteohub,2015-09-03 18:52:00,
2015-09-03 13:57:00,86.4,78.6,29.87,East,84,1.0,3.0,78,0.02,,,0.29,meteohub,2015-09-03 18:57:00,
2015-09-03 14:02:00,88.0,76.5,29.87,ESE,123,1.0,4.0,69,0.00,,,0.29,meteohub,2015-09-03 19:02:00,
2015-09-03 14:07:00,88.2,75.7,29.87,SSE,167,1.0,6.0,67,0.00,,,0.29,meteohub,2015-09-03 19:07:00,
2015-09-03 14:12:00,88.2,77.2,29.87,SSE,151,0.0,6.0,70,0.00,,,0.29,meteohub,2015-09-03 19:12:00,
2015-09-03 14:17:00,88.5,76.6,29.87,ESE,119,0.0,6.0,68,0.00,,,0.29,meteohub,2015-09-03 19:17:00,
2015-09-03 14:22:00,89.1,76.3,29.87,East,94,0.0,6.0,66,0.00,,,0.29,meteohub,2015-09-03 19:22:00,
2015-09-03 14:27:00,89.2,75.9,29.87,East,81,2.0,6.0,65,0.00,,,0.29,meteohub,2015-09-03 19:27:00,
2015-09-03 14:32:00,89.6,76.3,29.86,ESE,103,2.0,6.0,65,0.00,,,0.29,meteohub,2015-09-03 19:32:00,
2015-09-03 14:37:00,90.0,76.6,29.86,East,86,1.0,5.0,65,0.00,,,0.29,meteohub,2015-09-03 19:37:00,
2015-09-03 14:42:00,90.0,76.1,29.86,SE,127,2.0,5.0,64,0.00,,,0.29,meteohub,2015-09-03 19:42:00,
2015-09-03 14:47:00,89.8,75.9,29.86,ESE,117,2.0,4.0,64,0.00,,,0.29,meteohub,2015-09-03 19:47:00,
2015-09-03 14:52:00,89.4,75.2,29.86,ESE,113,2.0,4.0,63,0.00,,,0.29,meteohub,2015-09-03 19:52:00,
2015-09-03 14:57:00,89.4,75.2,29.85,ENE,72,2.0,4.0,63,0.00,,,0.29,meteohub,2015-09-03 19:57:00,
2015-09-03 15:03:00,89.4,74.7,29.85,East,91,2.0,4.0,62,0.00,,,0.29,meteohub,2015-09-03 20:03:00,
2015-09-03 15:08:00,90.1,74.8,29.85,SE,129,2.0,4.0,61,0.00,,,0.29,meteohub,2015-09-03 20:08:00,
2015-09-03 15:13:00,90.1,75.4,29.84,SSW,211,0.0,4.0,62,0.00,,,0.29,meteohub,2015-09-03 20:13:00,
2015-09-03 15:18:00,90.0,75.7,29.84,SW,229,0.0,4.0,63,0.00,,,0.29,meteohub,2015-09-03 20:18:00,
2015-09-03 15:23:00,90.0,75.2,29.84,SE,142,3.0,4.0,62,0.00,,,0.29,meteohub,2015-09-03 20:23:00,
2015-09-03 15:28:00,90.1,74.8,29.84,South,175,2.0,4.0,61,0.00,,,0.29,meteohub,2015-09-03 20:28:00,
2015-09-03 15:33:00,90.3,75.6,29.84,SW,224,0.0,6.0,62,0.00,,,0.29,meteohub,2015-09-03 20:33:00,
2015-09-03 15:38:00,90.9,76.5,29.83,WNW,297,0.0,6.0,63,0.00,,,0.29,meteohub,2015-09-03 20:38:00,
2015-09-03 15:43:00,91.6,75.7,29.83,SE,124,1.0,6.0,60,0.00,,,0.29,meteohub,2015-09-03 20:43:00,
2015-09-03 15:48:00,91.9,75.6,29.83,SE,142,3.0,5.0,59,0.00,,,0.29,meteohub,2015-09-03 20:48:00,
2015-09-03 15:53:00,92.7,74.7,29.83,SE,146,3.0,7.0,56,0.00,,,0.29,meteohub,2015-09-03 20:53:00,
2015-09-03 15:58:00,92.5,74.5,29.83,ESE,103,4.0,7.0,56,0.00,,,0.29,meteohub,2015-09-03 20:58:00,
2015-09-03 16:03:00,93.0,75.6,29.83,SSW,197,1.0,6.0,57,0.00,,,0.29,meteohub,2015-09-03 21:03:00,
2015-09-03 16:08:00,92.5,75.0,29.83,SW,229,5.0,6.0,57,0.00,,,0.29,meteohub,2015-09-03 21:08:00,
2015-09-03 16:13:00,91.8,74.3,29.83,SW,218,3.0,8.0,57,0.00,,,0.29,meteohub,2015-09-03 21:13:00,
2015-09-03 16:18:00,91.6,75.2,29.83,SSE,148,4.0,8.0,59,0.00,,,0.29,meteohub,2015-09-03 21:18:00,
2015-09-03 16:23:00,91.0,74.7,29.83,West,278,5.0,8.0,59,0.00,,,0.29,meteohub,2015-09-03 21:23:00,
2015-09-03 16:28:00,90.9,75.0,29.82,WSW,242,0.0,8.0,60,0.00,,,0.29,meteohub,2015-09-03 21:28:00,
2015-09-03 16:33:00,91.6,74.1,29.82,ESE,107,1.0,8.0,57,0.00,,,0.29,meteohub,2015-09-03 21:33:00,
2015-09-03 16:38:00,92.1,74.1,29.82,South,187,4.0,8.0,56,0.00,,,0.29,meteohub,2015-09-03 21:38:00,
2015-09-03 16:43:00,91.8,74.8,29.82,SE,145,1.0,8.0,58,0.00,,,0.29,meteohub,2015-09-03 21:43:00,
2015-09-03 16:48:00,91.6,74.7,29.82,SW,214,6.0,8.0,58,0.00,,,0.29,meteohub,2015-09-03 21:48:00,
2015-09-03 16:53:00,91.8,74.3,29.82,SW,215,2.0,8.0,57,0.00,,,0.29,meteohub,2015-09-03 21:53:00,
2015-09-03 16:58:00,91.8,73.8,29.82,SSE,158,1.0,7.0,56,0.00,,,0.29,meteohub,2015-09-03 21:58:00,
2015-09-03 17:03:00,91.9,73.9,29.82,WSW,240,4.0,9.0,56,0.00,,,0.29,meteohub,2015-09-03 22:03:00,